TimeEDT,TemperatureF,Dew PointF,Humidity,Sea Level PressureIn,VisibilityMPH,Wind Direction,Wind SpeedMPH,Gust SpeedMPH,PrecipitationIn,Events,Conditions,WindDirDegrees,DateUTC
12:53 AM,66.0,62.1,87,30.16,10.0,SE,5.8,-,N/A,,Clear,130,2013-04-09 04:53:00
1:53 AM,66.0,63.0,90,30.14,10.0,ESE,5.8,-,N/A,,Clear,120,2013-04-09 05:53:00
2:53 AM,64.9,63.0,93,30.12,10.0,SE,4.6,-,N/A,,Clear,130,2013-04-09 06:53:00
3:53 AM,64.0,63.0,96,30.12,10.0,ESE,3.5,-,N/A,,Clear,120,2013-04-09 07:53:00
4:53 AM,64.0,62.1,93,30.12,10.0,SE,3.5,-,N/A,,Clear,130,2013-04-09 08:53:00
5:53 AM,63.0,61.0,93,30.14,10.0,Calm,Calm,-,N/A,,Clear,0,2013-04-09 09:53:00
6:53 AM,62.1,61.0,96,30.16,5.0,Calm,Calm,-,N/A,,Clear,0,2013-04-09 10:53:00
7:19 AM,62.6,60.8,94,30.17,1.8,Calm,Calm,-,N/A,,Clear,0,2013-04-09 11:19:00
7:28 AM,62.6,60.8,94,30.18,3.0,Calm,Calm,-,N/A,,Clear,0,2013-04-09 11:28:00
7:53 AM,64.9,64.0,97,30.19,9.0,Calm,Calm,-,N/A,,Clear,0,2013-04-09 11:53:00
8:53 AM,69.1,66.0,90,30.20,10.0,ESE,5.8,-,N/A,,Clear,120,2013-04-09 12:53:00
9:53 AM,71.1,66.0,84,30.21,10.0,ESE,8.1,-,N/A,,Clear,120,2013-04-09 13:53:00
10:53 AM,73.0,64.9,76,30.22,10.0,ESE,8.1,-,N/A,,Clear,120,2013-04-09 14:53:00
11:53 AM,73.9,64.9,73,30.22,10.0,SE,8.1,-,N/A,,Clear,130,2013-04-09 15:53:00
12:53 PM,75.0,64.9,71,30.21,10.0,SE,8.1,-,N/A,,Clear,130,2013-04-09 16:53:00
1:53 PM,75.0,64.9,71,30.20,10.0,ESE,8.1,-,N/A,,Clear,120,2013-04-09 17:53:00
2:53 PM,75.9,64.9,69,30.19,10.0,SE,8.1,-,N/A,,Clear,140,2013-04-09 18:53:00
3:53 PM,75.0,64.9,71,30.18,10.0,SE,9.2,-,N/A,,Clear,130,2013-04-09 19:53:00
4:53 PM,75.0,64.0,69,30.17,10.0,SE,9.2,-,N/A,,Clear,140,2013-04-09 20:53:00
5:53 PM,73.0,64.9,76,30.16,10.0,SE,9.2,-,N/A,,Clear,130,2013-04-09 21:53:00
6:53 PM,72.0,64.9,78,30.16,10.0,SE,8.1,-,N/A,,Clear,130,2013-04-09 22:53:00
7:53 PM,70.0,64.0,81,30.17,10.0,SE,5.8,-,N/A,,Clear,140,2013-04-09 23:53:00
8:53 PM,69.1,63.0,81,30.17,10.0,SSE,5.8,-,N/A,,Clear,150,2013-04-10 00:53:00
9:53 PM,68.0,63.0,84,30.19,10.0,SE,8.1,-,N/A,,Clear,140,2013-04-10 01:53:00
10:53 PM,68.0,63.0,84,30.17,10.0,SSE,8.1,-,N/A,,Clear,150,2013-04-10 02:53:00
11:53 PM,66.9,63.0,87,30.17,10.0,SE,5.8,-,N/A,,Clear,140,2013-04-10 03:53:00